2015-07-05, 07:16:04,INVALID - VALUE NOT AVAILABLE,0,VALID,0,INVALID - VALUE NOT AVAILABLE,0,INVALID - VALUE NOT AVAILABLE,0,INVALID - VALUE NOT AVAILABLE,0,INVALID,360,INVALID,0,
2015-07-05, 07:17:04,VALID,918.236,VALID,0,VALID,94.7514,VALID,84.7711,VALID,18.086,VALID,353,VALID,0,
2015-07-05, 07:18:04,VALID,918.257,VALID,0,VALID,95.1021,VALID,93.7961,VALID,18.1445,VALID,354,VALID,0,
2015-07-05, 07:19:04,VALID,918.29,VALID,0,VALID,94.8048,VALID,102.499,VALID,18.203,VALID,5,VALID,0,
2015-07-05, 07:20:04,VALID,918.324,VALID,0,VALID,93.768,VALID,113.458,VALID,18.2809,VALID,6,VALID,0,
2015-07-05, 07:21:04,VALID,918.332,VALID,0,VALID,92.8075,VALID,123.987,VALID,18.3394,VALID,6,VALID,0,
2015-07-05, 07:22:04,VALID,918.328,VALID,0,VALID,92.8532,VALID,130.648,VALID,18.3979,VALID,6,VALID,0,
2015-07-05, 07:23:04,VALID,918.343,VALID,0,VALID,93.2649,VALID,134.087,VALID,18.4954,VALID,6,VALID,0,
2015-07-05, 07:24:04,VALID,918.362,VALID,0,VALID,91.7249,VALID,136.45,VALID,18.6513,VALID,6,VALID,0,
2015-07-05, 07:25:04,VALID,918.342,VALID,0,VALID,90.8025,VALID,138.277,VALID,18.7864,VALID,6,VALID,0,
2015-07-05, 07:26:04,VALID,918.412,VALID,0,VALID,90.1926,VALID,139.888,VALID,18.9243,VALID,6,VALID,0,
2015-07-05, 07:27:04,VALID,918.427,VALID,0,VALID,89.3236,VALID,141.393,VALID,19.0998,VALID,6,VALID,0,
2015-07-05, 07:28:04,VALID,918.451,VALID,0,VALID,88.1343,VALID,141.393,VALID,19.2558,VALID,6,VALID,0,
2015-07-05, 07:29:04,VALID,918.468,VALID,0,VALID,87.6083,VALID,144.186,VALID,19.3713,VALID,5,VALID,0,
2015-07-05, 07:30:04,VALID,918.457,VALID,0,VALID,86.8231,VALID,147.946,VALID,19.4508,VALID,5,VALID,0,
2015-07-05, 07:31:04,VALID,918.455,VALID,0,VALID,86.3504,VALID,153.104,VALID,19.5078,VALID,358,VALID,0,
2015-07-05, 07:32:04,VALID,918.439,VALID,0,VALID,85.9464,VALID,160.195,VALID,19.5663,VALID,358,VALID,0,
2015-07-05, 07:33:04,VALID,918.42,VALID,0,VALID,85.8168,VALID,165.997,VALID,19.7223,VALID,358,VALID,0,
2015-07-05, 07:34:04,VALID,918.432,VALID,0,VALID,85.8854,VALID,170.939,VALID,19.8783,VALID,357,VALID,0,
2015-07-05, 07:35:04,VALID,918.452,VALID,0,VALID,85.0011,VALID,174.807,VALID,20.0148,VALID,358,VALID,0,
2015-07-05, 07:36:04,VALID,918.44,VALID,0,VALID,84.0253,VALID,176.311,VALID,20.1903,VALID,358,VALID,0,
2015-07-05, 07:37:04,VALID,918.458,VALID,0,VALID,83.2858,VALID,177.923,VALID,20.3464,VALID,357,VALID,0,
2015-07-05, 07:38:04,VALID,918.445,VALID,0,VALID,82.8437,VALID,181.683,VALID,20.3464,VALID,346,VALID,0,
2015-07-05, 07:39:04,VALID,918.426,VALID,0,VALID,82.0051,VALID,186.088,VALID,20.3643,VALID,346,VALID,0,
2015-07-05, 07:40:04,VALID,918.425,VALID,0,VALID,82.7903,VALID,190.063,VALID,20.465,VALID,346,VALID,0,
2015-07-05, 07:41:04,VALID,918.396,VALID,0,VALID,82.9504,VALID,192.964,VALID,20.6031,VALID,346,VALID,0,
2015-07-05, 07:42:04,VALID,918.434,VALID,0,VALID,82.9504,VALID,193.931,VALID,20.639,VALID,346,VALID,0,
2015-07-05, 07:43:04,VALID,918.482,VALID,0,VALID,83.0647,VALID,197.047,VALID,20.5999,VALID,346,VALID,0,
2015-07-05, 07:44:04,VALID,918.495,VALID,0,VALID,83.0419,VALID,201.667,VALID,20.678,VALID,268,VALID,0,
2015-07-05, 07:45:04,VALID,918.489,VALID,0,VALID,83.0342,VALID,202.956,VALID,20.7381,VALID,204,VALID,0,
2015-07-05, 07:46:04,VALID,918.531,VALID,0,VALID,83.1029,VALID,190.708,VALID,20.717,VALID,200,VALID,0,
2015-07-05, 07:47:04,VALID,918.504,VALID,0,VALID,82.9123,VALID,189.311,VALID,20.6975,VALID,200,VALID,0,
2015-07-05, 07:48:04,VALID,918.517,VALID,0,VALID,82.6531,VALID,192.642,VALID,20.756,VALID,200,VALID,0,
2015-07-05, 07:49:04,VALID,918.514,VALID,0,VALID,80.7548,VALID,209.618,VALID,20.8145,VALID,200,VALID,0,
2015-07-05, 07:50:04,VALID,918.543,VALID,0,VALID,80.6405,VALID,220.147,VALID,20.8145,VALID,200,VALID,0,
2015-07-05, 07:51:04,VALID,918.525,VALID,0,VALID,79.436,VALID,217.353,VALID,20.7755,VALID,200,VALID,0,
2015-07-05, 07:52:04,VALID,918.563,VALID,0,VALID,79.5808,VALID,224.874,VALID,20.795,VALID,200,VALID,0,
2015-07-05, 07:53:04,VALID,918.613,VALID,0,VALID,79.9773,VALID,234.651,VALID,20.8925,VALID,203,VALID,0,
2015-07-05, 07:54:04,VALID,918.663,VALID,0,VALID,77.8503,VALID,235.511,VALID,21.0291,VALID,214,VALID,0,
2015-07-05, 07:55:04,VALID,918.661,VALID,0,VALID,78.5822,VALID,234.007,VALID,21.1071,VALID,222,VALID,0,
2015-07-05, 07:56:04,VALID,918.687,VALID,0,VALID,78.7041,VALID,236.478,VALID,21.1461,VALID,222,VALID,0,
2015-07-05, 07:57:04,VALID,918.69,VALID,0,VALID,78.201,VALID,242.28,VALID,21.2047,VALID,222,VALID,0,
2015-07-05, 07:58:04,VALID,918.687,VALID,0,VALID,78.201,VALID,227.883,VALID,21.2226,VALID,222,VALID,0,
2015-07-05, 07:59:04,VALID,918.697,VALID,0,VALID,78.201,VALID,237.982,VALID,21.1445,VALID,222,VALID,0,
2015-07-05, 08:00:04,VALID,918.691,VALID,0,VALID,78.4831,VALID,246.148,VALID,21.086,VALID,241,VALID,0,
2015-07-05, 08:01:04,VALID,918.724,VALID,0,VALID,78.2391,VALID,242.065,VALID,21.0275,VALID,287,VALID,0,
2015-07-05, 08:02:04,VALID,918.707,VALID,0,VALID,79.8095,VALID,243.032,VALID,21.0665,VALID,333,VALID,0,
2015-07-05, 08:03:04,VALID,918.72,VALID,0,VALID,78.5212,VALID,259.47,VALID,21.1836,VALID,348,VALID,0,
2015-07-05, 08:04:04,VALID,918.719,VALID,0,VALID,79.6418,VALID,261.512,VALID,21.2795,VALID,338,VALID,0,
2015-07-05, 08:05:04,VALID,918.736,VALID,0,VALID,78.3611,VALID,264.305,VALID,21.3575,VALID,315,VALID,0,
2015-07-05, 08:06:04,VALID,918.736,VALID,0,VALID,78.6889,VALID,260.652,VALID,21.3575,VALID,315,VALID,0,
2015-07-05, 08:07:04,VALID,918.74,VALID,0,VALID,78.9252,VALID,257.644,VALID,21.416,VALID,315,VALID,0,
2015-07-05, 08:08:04,VALID,918.806,VALID,0,VALID,78.1705,VALID,264.198,VALID,21.5347,VALID,315,VALID,0,
2015-07-05, 08:09:04,VALID,918.808,VALID,0,VALID,75.3422,VALID,273.975,VALID,21.4762,VALID,301,VALID,0,
2015-07-05, 08:10:04,VALID,918.806,VALID,0,VALID,76.2265,VALID,277.95,VALID,21.3006,VALID,292,VALID,0,
2015-07-05, 08:11:04,VALID,918.783,VALID,0,VALID,76.4019,VALID,281.173,VALID,21.164,VALID,292,VALID,0,
2015-07-05, 08:12:04,VALID,918.817,VALID,0,VALID,77.8961,VALID,283.322,VALID,21.008,VALID,292,VALID,0,
2015-07-05, 08:13:04,VALID,918.798,VALID,0,VALID,79.1997,VALID,287.083,VALID,20.93,VALID,292,VALID,0,
2015-07-05, 08:14:04,VALID,918.792,VALID,0,VALID,80.9073,VALID,292.025,VALID,20.9105,VALID,292,VALID,0,
2015-07-05, 08:15:04,VALID,918.793,VALID,0,VALID,81.3647,VALID,294.711,VALID,21.0665,VALID,6,VALID,0,
2015-07-05, 08:16:04,VALID,918.806,VALID,0,VALID,80.6634,VALID,296.43,VALID,21.2616,VALID,337,VALID,0,
2015-07-05, 08:17:04,VALID,918.825,VALID,0,VALID,79.779,VALID,289.661,VALID,21.3006,VALID,318,VALID,0,
2015-07-05, 08:18:04,VALID,918.865,VALID,0,VALID,79.6495,VALID,304.273,VALID,21.1819,VALID,318,VALID,0,
2015-07-05, 08:19:04,VALID,918.883,VALID,0,VALID,80.4575,VALID,307.711,VALID,21.1055,VALID,318,VALID,0,
2015-07-05, 08:20:04,VALID,918.893,VALID,0,VALID,81.1284,VALID,313.513,VALID,21.0275,VALID,318,VALID,0,
2015-07-05, 08:21:04,VALID,918.901,VALID,0,VALID,81.3723,VALID,319.637,VALID,21.0665,VALID,318,VALID,0,
2015-07-05, 08:22:04,VALID,918.885,VALID,0,VALID,80.5795,VALID,316.307,VALID,21.1234,VALID,318,VALID,0,
2015-07-05, 08:23:04,VALID,918.876,VALID,0,VALID,81.441,VALID,317.059,VALID,21.1039,VALID,318,VALID,0,
2015-07-05, 08:24:04,VALID,918.861,VALID,0,VALID,82.0813,VALID,320.175,VALID,21.0649,VALID,318,VALID,0,
2015-07-05, 08:25:04,VALID,918.866,VALID,0,VALID,81.7916,VALID,321.571,VALID,21.0844,VALID,318,VALID,0,
2015-07-05, 08:26:04,VALID,918.93,VALID,0,VALID,82.5616,VALID,327.266,VALID,21.0649,VALID,318,VALID,0,
2015-07-05, 08:27:04,VALID,918.924,VALID,0,VALID,81.8526,VALID,331.778,VALID,21.1039,VALID,318,VALID,0,
2015-07-05, 08:28:04,VALID,918.928,VALID,0,VALID,82.0889,VALID,332.638,VALID,21.221,VALID,318,VALID,0,
2015-07-05, 08:29:04,VALID,918.943,VALID,0,VALID,80.61,VALID,329.415,VALID,21.338,VALID,318,VALID,0,
2015-07-05, 08:30:04,VALID,918.972,VALID,0,VALID,80.7625,VALID,331.241,VALID,21.4534,VALID,318,VALID,0,
2015-07-05, 08:31:04,VALID,918.979,VALID,0,VALID,80.4728,VALID,337.258,VALID,21.6095,VALID,318,VALID,0,
2015-07-05, 08:32:04,VALID,919.007,VALID,0,VALID,78.605,VALID,346.498,VALID,21.7672,VALID,318,VALID,0,
2015-07-05, 08:33:04,VALID,919.023,VALID,0,VALID,79.0472,VALID,346.39,VALID,21.7672,VALID,320,VALID,0,
2015-07-05, 08:34:04,VALID,919.031,VALID,0,VALID,78.9024,VALID,346.175,VALID,21.8647,VALID,318,VALID,0,
2015-07-05, 08:35:04,VALID,919.015,VALID,0,VALID,77.9418,VALID,347.142,VALID,21.9818,VALID,318,VALID,0,
2015-07-05, 08:36:04,VALID,919.022,VALID,0,VALID,77.3167,VALID,348.861,VALID,21.9996,VALID,318,VALID,0,
2015-07-05, 08:37:04,VALID,919.039,VALID,0,VALID,78.0866,VALID,350.58,VALID,22.0582,VALID,318,VALID,0,
2015-07-05, 08:38:04,VALID,919.073,VALID,0,VALID,77.5987,VALID,354.126,VALID,22.1167,VALID,318,VALID,0,
2015-07-05, 08:39:04,VALID,919.068,VALID,0,VALID,77.9799,VALID,357.994,VALID,22.1379,VALID,318,VALID,0,
2015-07-05, 08:40:04,VALID,919.083,VALID,0,VALID,76.9889,VALID,360.895,VALID,22.1557,VALID,318,VALID,0,
2015-07-05, 08:41:04,VALID,919.076,VALID,0,VALID,78.0257,VALID,361.647,VALID,22.2745,VALID,318,VALID,0,
2015-07-05, 08:42:04,VALID,919.074,VALID,0,VALID,76.2875,VALID,364.225,VALID,22.5069,VALID,353,VALID,0,
2015-07-05, 08:43:04,VALID,919.048,VALID,0,VALID,75.083,VALID,364.87,VALID,22.7428,VALID,8,VALID,0,
2015-07-05, 08:44:04,VALID,919.085,VALID,0,VALID,72.5749,VALID,366.589,VALID,22.8972,VALID,304,VALID,0.137891,
2015-07-05, 08:45:04,VALID,919.083,VALID,0,VALID,72.4225,VALID,368.416,VALID,22.7818,VALID,318,VALID,0.0953125,
2015-07-05, 08:46:04,VALID,919.086,VALID,0,VALID,73.5812,VALID,364.333,VALID,22.6843,VALID,312,VALID,0,
2015-07-05, 08:47:04,VALID,919.088,VALID,0,VALID,73.2077,VALID,366.482,VALID,22.5655,VALID,290,VALID,0,
2015-07-05, 08:48:04,VALID,919.097,VALID,0,VALID,74.2063,VALID,370.672,VALID,22.4289,VALID,311,VALID,0,
2015-07-05, 08:49:04,VALID,919.101,VALID,0,VALID,74.3817,VALID,364.87,VALID,22.3313,VALID,302,VALID,0,
2015-07-05, 08:50:04,VALID,919.1,VALID,0,VALID,74.9001,VALID,364.87,VALID,22.2923,VALID,318,VALID,0,
2015-07-05, 08:51:04,VALID,919.129,VALID,0,VALID,75.266,VALID,370.994,VALID,22.3118,VALID,308,VALID,0,
2015-07-05, 08:52:04,VALID,919.122,VALID,0,VALID,74.0539,VALID,374.755,VALID,22.294,VALID,278,VALID,0.0839844,
2015-07-05, 08:53:04,VALID,919.133,VALID,0,VALID,73.9471,VALID,382.168,VALID,22.2142,VALID,294,VALID,0.00429688,
2015-07-05, 08:54:04,VALID,919.114,VALID,0,VALID,74.3817,VALID,385.391,VALID,22.2728,VALID,305,VALID,0,
2015-07-05, 08:55:04,VALID,919.114,VALID,0,VALID,75.6319,VALID,393.987,VALID,22.3703,VALID,294,VALID,0,
2015-07-05, 08:56:04,VALID,919.085,VALID,0,VALID,74.5036,VALID,396.243,VALID,22.3703,VALID,322,VALID,0,
2015-07-05, 08:57:04,VALID,919.082,VALID,0,VALID,74.153,VALID,399.789,VALID,22.372,VALID,276,VALID,0,
2015-07-05, 08:58:04,VALID,919.077,VALID,0,VALID,74.7095,VALID,402.152,VALID,22.3899,VALID,268,VALID,0,
2015-07-05, 08:59:04,VALID,919.067,VALID,0,VALID,74.6637,VALID,412.789,VALID,22.4891,VALID,268,VALID,0,
2015-07-05, 09:00:04,VALID,919.077,VALID,0,VALID,74.0615,VALID,419.558,VALID,22.5459,VALID,319,VALID,0,
2015-07-05, 09:01:04,VALID,919.079,VALID,0,VALID,73.2458,VALID,429.979,VALID,22.7038,VALID,321,VALID,0,
2015-07-05, 09:02:04,VALID,919.041,VALID,0,VALID,72.6588,VALID,433.525,VALID,22.7818,VALID,295,VALID,0,
2015-07-05, 09:03:04,VALID,919.092,VALID,0,VALID,73.2763,VALID,437.823,VALID,22.7038,VALID,289,VALID,0,
2015-07-05, 09:04:04,VALID,919.045,VALID,0,VALID,72.6816,VALID,441.905,VALID,22.6647,VALID,284,VALID,0,
2015-07-05, 09:05:04,VALID,919.044,VALID,0,VALID,73.7108,VALID,447.17,VALID,22.663,VALID,344,VALID,0,
2015-07-05, 09:06:04,VALID,919.065,VALID,0,VALID,72.7426,VALID,448.674,VALID,22.8794,VALID,349,VALID,0,
2015-07-05, 09:07:04,VALID,919.068,VALID,0,VALID,72.4911,VALID,440.616,VALID,23.0746,VALID,318,VALID,0,
2015-07-05, 09:08:04,VALID,919.073,VALID,0,VALID,71.1036,VALID,450.931,VALID,23.2112,VALID,327,VALID,0,
2015-07-05, 09:09:04,VALID,919.072,VALID,0,VALID,70.6614,VALID,456.195,VALID,23.3461,VALID,317,VALID,0,
2015-07-05, 09:10:04,VALID,919.081,VALID,0,VALID,69.617,VALID,461.352,VALID,23.3851,VALID,315,VALID,0,
2015-07-05, 09:11:04,VALID,919.084,VALID,0,VALID,70.3336,VALID,468.443,VALID,23.3674,VALID,315,VALID,0,
2015-07-05, 09:12:04,VALID,919.122,VALID,0,VALID,70.3641,VALID,472.741,VALID,23.3851,VALID,315,VALID,0,
2015-07-05, 09:13:04,VALID,919.114,VALID,0,VALID,70.9969,VALID,472.096,VALID,23.4827,VALID,315,VALID,0,
2015-07-05, 09:14:04,VALID,919.112,VALID,0,VALID,70.5623,VALID,474.89,VALID,23.6211,VALID,315,VALID,0,
2015-07-05, 09:15:04,VALID,919.104,VALID,0,VALID,70.6386,VALID,478.758,VALID,23.6584,VALID,315,VALID,0,
2015-07-05, 09:16:04,VALID,919.096,VALID,0,VALID,69.1596,VALID,480.369,VALID,23.7169,VALID,314,VALID,0,
2015-07-05, 09:17:04,VALID,919.065,VALID,0,VALID,70.6691,VALID,482.303,VALID,23.5998,VALID,295,VALID,0,
2015-07-05, 09:18:04,VALID,919.036,VALID,0,VALID,70.7758,VALID,486.494,VALID,23.6584,VALID,316,VALID,0,
2015-07-05, 09:19:04,VALID,919.061,VALID,0,VALID,69.6552,VALID,489.824,VALID,23.8536,VALID,316,VALID,0,
2015-07-05, 09:20:04,VALID,919.057,VALID,0,VALID,65.8587,VALID,491.113,VALID,24.0878,VALID,307,VALID,0,
2015-07-05, 09:21:04,VALID,919.033,VALID,0,VALID,67.33,VALID,496.271,VALID,24.1854,VALID,302,VALID,0,
2015-07-05, 09:22:04,VALID,919.021,VALID,0,VALID,67.3681,VALID,495.626,VALID,24.3221,VALID,272,VALID,0,
2015-07-05, 09:23:04,VALID,919.054,VALID,0,VALID,67.147,VALID,493.37,VALID,24.2635,VALID,273,VALID,0,
2015-07-05, 09:24:04,VALID,919.032,VALID,0,VALID,67.6883,VALID,490.254,VALID,24.3026,VALID,330,VALID,0,
2015-07-05, 09:25:04,VALID,919.037,VALID,0,VALID,67.4825,VALID,491.436,VALID,24.4197,VALID,331,VALID,0,
2015-07-05, 09:26:04,VALID,919.048,VALID,0,VALID,66.7125,VALID,502.502,VALID,24.5368,VALID,329,VALID,0,
2015-07-05, 09:27:04,VALID,919.058,VALID,0,VALID,66.3313,VALID,505.511,VALID,24.693,VALID,331,VALID,0,
2015-07-05, 09:28:04,VALID,919.047,VALID,0,VALID,64.921,VALID,503.362,VALID,24.8883,VALID,300,VALID,0,
2015-07-05, 09:29:04,VALID,919.066,VALID,0,VALID,64.8676,VALID,501.535,VALID,24.8864,VALID,286,VALID,0,
2015-07-05, 09:30:04,VALID,919.074,VALID,0,VALID,64.738,VALID,496.808,VALID,24.8864,VALID,304,VALID,0,
2015-07-05, 09:31:04,VALID,919.032,VALID,0,VALID,63.7927,VALID,497.453,VALID,24.693,VALID,304,VALID,0,
2015-07-05, 09:32:04,VALID,919.023,VALID,0,VALID,64.9363,VALID,495.519,VALID,24.4569,VALID,309,VALID,0,
2015-07-05, 09:33:04,VALID,919.008,VALID,0,VALID,65.8206,VALID,503.792,VALID,24.2635,VALID,284,VALID,0,
2015-07-05, 09:34:04,VALID,918.985,VALID,0,VALID,67.6731,VALID,513.139,VALID,24.0878,VALID,360,VALID,0.295312,
2015-07-05, 09:35:04,VALID,918.988,VALID,0,VALID,69.6094,VALID,519.693,VALID,24.1854,VALID,352,VALID,0,
2015-07-05, 09:36:04,VALID,919.036,VALID,0,VALID,68.2829,VALID,522.486,VALID,24.3007,VALID,37,VALID,0,
2015-07-05, 09:37:04,VALID,919.01,VALID,0,VALID,66.4686,VALID,521.734,VALID,24.4959,VALID,33,VALID,0,
2015-07-05, 09:38:04,VALID,919.034,VALID,0,VALID,67.0022,VALID,531.941,VALID,24.6131,VALID,28,VALID,0,
2015-07-05, 09:39:04,VALID,919.094,VALID,0,VALID,65.2259,VALID,536.454,VALID,24.574,VALID,297,VALID,0,
2015-07-05, 09:40:04,VALID,919.051,VALID,0,VALID,66.1789,VALID,539.355,VALID,24.535,VALID,356,VALID,0.0253906,
2015-07-05, 09:41:04,VALID,919.078,VALID,0,VALID,66.4914,VALID,542.9,VALID,24.6131,VALID,2,VALID,0,
2015-07-05, 09:42:04,VALID,919.049,VALID,0,VALID,66.2475,VALID,542.041,VALID,24.8102,VALID,319,VALID,0,
2015-07-05, 09:43:04,VALID,919.044,VALID,0,VALID,67.33,VALID,541.181,VALID,24.7888,VALID,8,VALID,0,
2015-07-05, 09:44:04,VALID,919.041,VALID,0,VALID,64.395,VALID,550.421,VALID,24.9255,VALID,24,VALID,0,
2015-07-05, 09:45:04,VALID,919,VALID,0,VALID,64.2806,VALID,556.438,VALID,25.0231,VALID,292,VALID,0,
2015-07-05, 09:46:04,VALID,918.985,VALID,0,VALID,67.2157,VALID,551.281,VALID,24.8669,VALID,339,VALID,0,
2015-07-05, 09:47:04,VALID,918.962,VALID,0,VALID,65.3479,VALID,560.843,VALID,25.0464,VALID,15,VALID,0,
2015-07-05, 09:48:04,VALID,918.967,VALID,0,VALID,62.6416,VALID,567.719,VALID,25.2183,VALID,299,VALID,0,
2015-07-05, 09:49:04,VALID,918.995,VALID,0,VALID,63.1676,VALID,566.107,VALID,25.355,VALID,347,VALID,0,
2015-07-05, 09:50:04,VALID,919.012,VALID,0,VALID,62.7865,VALID,560.306,VALID,25.3941,VALID,3,VALID,0.154297,
2015-07-05, 09:51:04,VALID,919.022,VALID,0,VALID,62.2909,VALID,561.273,VALID,25.3765,VALID,27,VALID,0.387109,
2015-07-05, 09:52:04,VALID,919.032,VALID,0,VALID,63.1981,VALID,565.678,VALID,25.3179,VALID,36,VALID,0,
2015-07-05, 09:53:04,VALID,919.037,VALID,0,VALID,63.4802,VALID,571.802,VALID,25.3765,VALID,305,VALID,0,
2015-07-05, 09:54:04,VALID,919.015,VALID,0,VALID,63.0075,VALID,571.694,VALID,25.2984,VALID,309,VALID,0,
2015-07-05, 09:55:04,VALID,918.973,VALID,0,VALID,64.3493,VALID,571.265,VALID,25.025,VALID,294,VALID,0,
2015-07-05, 09:56:04,VALID,918.923,VALID,0,VALID,67.7112,VALID,547.09,VALID,24.8492,VALID,320,VALID,0,
2015-07-05, 09:57:04,VALID,918.96,VALID,0,VALID,66.1026,VALID,546.338,VALID,25.0231,VALID,4,VALID,0.417969,
2015-07-05, 09:58:04,VALID,918.946,VALID,0,VALID,64.9439,VALID,571.587,VALID,25.0836,VALID,300,VALID,0,
2015-07-05, 09:59:04,VALID,918.968,VALID,0,VALID,64.8067,VALID,558.909,VALID,24.8492,VALID,309,VALID,0,
2015-07-05, 10:00:04,VALID,918.96,VALID,0,VALID,66.4457,VALID,553.322,VALID,24.6521,VALID,319,VALID,0.0289063,
2015-07-05, 10:01:04,VALID,918.973,VALID,0,VALID,67.452,VALID,574.81,VALID,24.5526,VALID,9,VALID,1.38281,
2015-07-05, 10:02:04,VALID,918.964,VALID,0,VALID,66.5524,VALID,573.413,VALID,24.5935,VALID,360,VALID,0.181641,
2015-07-05, 10:03:04,VALID,918.999,VALID,0,VALID,64.1434,VALID,549.669,VALID,24.6716,VALID,305,VALID,0.130078,
2015-07-05, 10:04:04,VALID,918.986,VALID,0,VALID,65.7062,VALID,562.132,VALID,24.5136,VALID,303,VALID,0,
2015-07-05, 10:05:04,VALID,919.014,VALID,0,VALID,66.095,VALID,581.042,VALID,24.6112,VALID,27,VALID,0,
2015-07-05, 10:06:04,VALID,918.973,VALID,0,VALID,65.7062,VALID,589.745,VALID,24.9255,VALID,340,VALID,0,
2015-07-05, 10:07:04,VALID,919.001,VALID,0,VALID,65.7596,VALID,599.522,VALID,25.2164,VALID,34,VALID,0,
2015-07-05, 10:08:04,VALID,918.94,VALID,0,VALID,62.3138,VALID,615.101,VALID,25.4507,VALID,315,VALID,0,
2015-07-05, 10:09:04,VALID,918.928,VALID,0,VALID,66.5143,VALID,608.439,VALID,25.3746,VALID,11,VALID,0,
2015-07-05, 10:10:04,VALID,918.96,VALID,0,VALID,62.7865,VALID,598.017,VALID,25.4527,VALID,320,VALID,0.0121094,
2015-07-05, 10:11:04,VALID,918.924,VALID,0,VALID,62.2909,VALID,610.695,VALID,25.2945,VALID,328,VALID,0,
2015-07-05, 10:12:04,VALID,918.926,VALID,0,VALID,64.5856,VALID,621.225,VALID,25.316,VALID,330,VALID,0,
2015-07-05, 10:13:04,VALID,918.927,VALID,0,VALID,62.5654,VALID,625.093,VALID,25.2183,VALID,300,VALID,0.70625,
2015-07-05, 10:14:04,VALID,918.856,VALID,0,VALID,65.5309,VALID,630.787,VALID,24.9645,VALID,355,VALID,0.271094,
2015-07-05, 10:15:04,VALID,918.843,VALID,0,VALID,65.2946,VALID,631.109,VALID,24.9236,VALID,353,VALID,0.243359,
2015-07-05, 10:16:04,VALID,918.89,VALID,0,VALID,66.6363,VALID,631.969,VALID,25.1031,VALID,27,VALID,0.170312,
2015-07-05, 10:17:04,VALID,918.878,VALID,0,VALID,66.8955,VALID,632.936,VALID,25.2769,VALID,1,VALID,0,
2015-07-05, 10:18:04,VALID,918.859,VALID,0,VALID,64.3111,VALID,635.944,VALID,25.4351,VALID,263,VALID,0,
2015-07-05, 10:19:04,VALID,918.85,VALID,0,VALID,63.7165,VALID,636.374,VALID,25.5113,VALID,265,VALID,0,
2015-07-05, 10:20:04,VALID,918.847,VALID,0,VALID,62.7331,VALID,633.043,VALID,25.5132,VALID,296,VALID,0,
2015-07-05, 10:21:04,VALID,918.848,VALID,0,VALID,64.5703,VALID,640.564,VALID,25.5308,VALID,19,VALID,1.73984,
2015-07-05, 10:22:04,VALID,918.832,VALID,0,VALID,63.4268,VALID,636.696,VALID,25.5113,VALID,38,VALID,0.0851562,
2015-07-05, 10:23:04,VALID,918.811,VALID,0,VALID,66.0493,VALID,637.986,VALID,25.5503,VALID,333,VALID,0,
2015-07-05, 10:24:04,VALID,918.854,VALID,0,VALID,64.2654,VALID,628.316,VALID,25.7261,VALID,27,VALID,0,
2015-07-05, 10:25:04,VALID,918.863,VALID,0,VALID,63.6555,VALID,628.853,VALID,25.7066,VALID,244,VALID,0,
2015-07-05, 10:26:04,VALID,918.853,VALID,0,VALID,63.2972,VALID,615.638,VALID,25.607,VALID,260,VALID,0,
2015-07-05, 10:27:04,VALID,918.822,VALID,0,VALID,63.9376,VALID,634.118,VALID,25.728,VALID,237,VALID,0,
2015-07-05, 10:28:04,VALID,918.821,VALID,0,VALID,61.9098,VALID,636.481,VALID,25.8237,VALID,271,VALID,0,
2015-07-05, 10:29:04,VALID,918.835,VALID,0,VALID,62.4586,VALID,635.729,VALID,25.8628,VALID,286,VALID,0,
2015-07-05, 10:30:04,VALID,918.878,VALID,0,VALID,61.338,VALID,638.308,VALID,25.9038,VALID,173,VALID,0.787891,
2015-07-05, 10:31:04,VALID,918.86,VALID,0,VALID,62.9923,VALID,638.2,VALID,25.648,VALID,248,VALID,0.0613281,
2015-07-05, 10:32:04,VALID,918.83,VALID,0,VALID,63.869,VALID,640.242,VALID,25.5698,VALID,293,VALID,0.483594,
2015-07-05, 10:33:04,VALID,918.77,VALID,0,VALID,66.2094,VALID,643.787,VALID,25.5308,VALID,54,VALID,2.04766,
2015-07-05, 10:34:04,VALID,918.8,VALID,0,VALID,64.799,VALID,650.556,VALID,25.5894,VALID,279,VALID,0.025,
2015-07-05, 10:35:04,VALID,918.798,VALID,0,VALID,65.7291,VALID,646.259,VALID,25.687,VALID,252,VALID,0,
2015-07-05, 10:36:04,VALID,918.792,VALID,0,VALID,62.756,VALID,639.275,VALID,25.8628,VALID,340,VALID,0,
2015-07-05, 10:37:04,VALID,918.825,VALID,0,VALID,61.6734,VALID,627.564,VALID,25.9019,VALID,255,VALID,0,
2015-07-05, 10:38:04,VALID,918.797,VALID,0,VALID,61.46,VALID,641.853,VALID,25.7456,VALID,318,VALID,0.929688,
2015-07-05, 10:39:04,VALID,918.803,VALID,0,VALID,62.8093,VALID,643.895,VALID,25.5308,VALID,312,VALID,0,
2015-07-05, 10:40:04,VALID,918.778,VALID,0,VALID,63.6022,VALID,652.49,VALID,25.5093,VALID,330,VALID,0,
2015-07-05, 10:41:04,VALID,918.78,VALID,0,VALID,65.0964,VALID,609.621,VALID,25.6284,VALID,14,VALID,0.00078125,
2015-07-05, 10:42:04,VALID,918.761,VALID,0,VALID,60.0878,VALID,610.051,VALID,25.5894,VALID,236,VALID,0.203125,
2015-07-05, 10:43:04,VALID,918.741,VALID,0,VALID,63.5488,VALID,634.977,VALID,25.648,VALID,134,VALID,0.0519531,
2015-07-05, 10:44:04,VALID,918.715,VALID,0,VALID,63.8537,VALID,656.895,VALID,25.8628,VALID,6,VALID,1.10781,
2015-07-05, 10:45:04,VALID,918.732,VALID,0,VALID,63.6708,VALID,665.383,VALID,26.0386,VALID,353,VALID,0.0597656,
2015-07-05, 10:46:04,VALID,918.727,VALID,0,VALID,62.2528,VALID,679.995,VALID,26.1558,VALID,25,VALID,0,
2015-07-05, 10:47:04,VALID,918.729,VALID,0,VALID,62.451,VALID,676.557,VALID,26.1362,VALID,294,VALID,0.553125,
2015-07-05, 10:48:04,VALID,918.696,VALID,0,VALID,62.9999,VALID,682.359,VALID,25.9214,VALID,311,VALID,0,
2015-07-05, 10:49:04,VALID,918.735,VALID,0,VALID,59.2949,VALID,677.954,VALID,25.6675,VALID,244,VALID,0.85625,
2015-07-05, 10:50:04,VALID,918.71,VALID,0,VALID,60.0725,VALID,685.367,VALID,25.4722,VALID,226,VALID,1.42188,
2015-07-05, 10:51:04,VALID,918.658,VALID,0,VALID,60.4003,VALID,687.194,VALID,25.5113,VALID,355,VALID,0.198828,
2015-07-05, 10:52:04,VALID,918.647,VALID,0,VALID,60.9797,VALID,693.855,VALID,25.648,VALID,20,VALID,0,
2015-07-05, 10:53:04,VALID,918.616,VALID,0,VALID,61.6734,VALID,700.301,VALID,25.7437,VALID,266,VALID,0.243359,
2015-07-05, 10:54:04,VALID,918.632,VALID,0,VALID,62.8627,VALID,702.021,VALID,25.7066,VALID,279,VALID,0,
2015-07-05, 10:55:04,VALID,918.597,VALID,0,VALID,62.7788,VALID,702.558,VALID,25.7847,VALID,266,VALID,0,
2015-07-05, 10:56:04,VALID,918.587,VALID,0,VALID,62.0394,VALID,701.591,VALID,25.8999,VALID,200,VALID,0,
2015-07-05, 10:57:04,VALID,918.617,VALID,0,VALID,61.7344,VALID,705.781,VALID,26.019,VALID,244,VALID,0.271875,
2015-07-05, 10:58:04,VALID,918.616,VALID,0,VALID,59.5617,VALID,705.459,VALID,25.7456,VALID,240,VALID,0.419922,
2015-07-05, 10:59:04,VALID,918.553,VALID,0,VALID,57.6483,VALID,708.897,VALID,25.6265,VALID,189,VALID,1.36992,
2015-07-05, 11:00:04,VALID,918.565,VALID,0,VALID,61.4752,VALID,712.227,VALID,25.7261,VALID,226,VALID,0.152734,
2015-07-05, 11:01:04,VALID,918.58,VALID,0,VALID,65.0049,VALID,714.161,VALID,25.8433,VALID,356,VALID,0.00625,